Regional Weather Roundup
Issued by NWS

Home | Current Version | Previous Version | Text Only | Print | Product List | Glossary On
Versions: 1 2 3 4 5 6 7 8 9 10 11 12 13 14 15 16 17 18 19 20 21 22 23 24 25 26 27 28 29 30 31 32 33 34 35 36 37 38 39 40 41 42 43 44 45 46 47 48 49 50
419
ASUS43 KDTX 291210
RWRMI
MICHIGAN HOURLY REGIONAL WEATHER ROUNDUP
NATIONAL WEATHER SERVICE DETROIT/PONTIAC MI
800 AM EDT WED MAR 29 2017

NOTE: "FAIR" INDICATES FEW OR NO CLOUDS BELOW 12,000 FEET WITH NO
SIGNIFICANT WEATHER AND/OR OBSTRUCTION TO VISIBILITY.

MIZ047>049-052>055-059>063-066>070-074>076-081>083-291300-
SOUTHEAST LOWER MICHIGAN

CITY           SKY/WX    TMP DP  RH WIND       PRES   REMARKS
ADRIAN         CLEAR     32  29  88 NE7       30.26R WCI  26
6HR MIN TEMP:  30; 6HR MAX TEMP:  36;

ALMA           CLEAR     28  28 100 CALM      30.29R FOG
ANN ARBOR      CLEAR     28  28 100 CALM      30.26R
BAD AXE        CLEAR     26  25  96 CALM      30.28S
6HR MIN TEMP:  24; 6HR MAX TEMP:  28;

CARO           CLEAR     24  23  96 CALM      30.28R
DETROIT CITY   CLEAR     34  30  85 N5        30.27R WCI  30
6HR MIN TEMP:  32; 6HR MAX TEMP:  36;

DETROIT        CLEAR     35  30  82 N3        30.28R
6HR MIN TEMP:  33; 6HR MAX TEMP:  38;

FLINT          CLEAR     29  27  92 CALM      30.28R
6HR MIN TEMP:  26; 6HR MAX TEMP:  33;

GROSSE ILE     CLEAR     32  31  95 N5        30.26R WCI  28
6HR MIN TEMP:  31; 6HR MAX TEMP:  38;

HILLSDALE      CLEAR     32  30  93 E6        30.23S WCI  26
HOWELL         CLEAR     31  29  94 CALM      30.25S
6HR MIN TEMP:  28; 6HR MAX TEMP:  34;


CITY           SKY/WX    TMP DP  RH WIND       PRES   REMARKS
JACKSON        CLEAR     31  30  96 CALM      30.26R
6HR MIN TEMP:  30; 6HR MAX TEMP:  36; 6HR PCP: TRACE;

LAMBERTVILLE   CLEAR     34  31  90 NE3       30.26R
6HR MIN TEMP:  31; 6HR MAX TEMP:  37;

LANSING        CLEAR     30  28  92 CALM      30.29R
6HR MIN TEMP:  29; 6HR MAX TEMP:  36;

LAPEER         FAIR      28  28 100 CALM      30.28R
6HR MIN TEMP:  26; 6HR MAX TEMP:  31;

MASON          CLEAR     31  31 100 CALM      30.26S FOG
MONROE         CLEAR     32  31  96 N5        30.26R WCI  27
MT. CLEMENS    CLEAR     33  31  93 N5        30.25R WCI  29
6HR MIN TEMP:  29; 6HR MAX TEMP:  34;

PONTIAC        CLEAR     31  27  85 CALM      30.25R
6HR MIN TEMP:  29; 6HR MAX TEMP:  34;

PORT HOPE        N/A     34  30  85 NW6       30.27R WCI  29
6HR MIN TEMP:  30; 6HR MAX TEMP:  34;

PORT HURON     CLEAR     28  27  93 CALM      30.27S
TRI CITIES     CLEAR     29  29 100 CALM      30.30R
6HR MIN TEMP:  29; 6HR MAX TEMP:  33;

MIDLAND        FAIR      27  26  96 CALM      30.29R
6HR MIN TEMP:  26; 6HR MAX TEMP:  30;

TROY           CLEAR     37  31  78 CALM      30.28R
SAGINAW HB     CLEAR     30  27  86 CALM      30.29S
$$
MIZ043>046-050>051-056>058-064>065-071>073-077>080-291300-
SOUTHWEST LOWER MICHIGAN

CITY           SKY/WX    TMP DP  RH WIND       PRES   REMARKS
BATTLE CREEK   CLEAR     33  32  96 CALM      30.26S
6HR MIN TEMP:  30; 6HR MAX TEMP:  35;

BENTON HARBOR  CLEAR     30  28  92 E5        30.25R WCI  25
6HR MIN TEMP:  28; 6HR MAX TEMP:  31;

BIG RAPIDS     CLEAR     28  27  95 CALM      30.30R
6HR MIN TEMP:  27; 6HR MAX TEMP:  36;

COLDWATER      CLEAR     31  31 100 NE5       30.25R WCI  27
6HR MIN TEMP:  30; 6HR MAX TEMP:  33;

FREMONT        FAIR      31  31 100 CALM      30.29R
HOLLAND        CLEAR     32  30  92 E3        30.28R FOG
6HR MIN TEMP:  30; 6HR MAX TEMP:  32;

GRAND RAPIDS   PTCLDY    30  30 100 NE5       30.28R WCI  25
6HR MIN TEMP:  29; 6HR MAX TEMP:  36;

IONIA            N/A     31  31 100 N3        30.28R FOG
6HR MIN TEMP:  29; 6HR MAX TEMP:  36;

KALAMAZOO      CLEAR     30  29  96 CALM      30.26R
6HR MIN TEMP:  29; 6HR MAX TEMP:  35;

LUDINGTON      FOG       27  27 100 CALM      30.31R VSB 1/4
6HR MIN TEMP:  27; 6HR MAX TEMP:  32;

MARSHALL         N/A     29  29  98 CALM      30.25S FOG
6HR MIN TEMP:  28; 6HR MAX TEMP:  36;

MOUNT PLEASANT CLEAR     30  29  96 CALM      30.28R
6HR MIN TEMP:  29; 6HR MAX TEMP:  33;

MUSKEGON       PTCLDY    31  30  96 CALM      30.30R
6HR MIN TEMP:  29; 6HR MAX TEMP:  31;

SOUTH HAVEN    CLEAR     32  31  96 CALM      30.26R
$$
MIZ016>042-291300-
NORTHERN LOWER MICHIGAN

CITY           SKY/WX    TMP DP  RH WIND       PRES   REMARKS
ALPENA         CLEAR     31  29  92 N5        30.31R WCI  26
6HR MIN TEMP:  27; 6HR MAX TEMP:  32;

BEAVER ISLAND  PTCLDY    30  30 100 NE3       30.33S
6HR MIN TEMP:  25; 6HR MAX TEMP:  31;

BELLAIRE       CLEAR     25  24  94 CALM      30.33R
6HR MIN TEMP:  24; 6HR MAX TEMP:  29;

CADILLAC       CLEAR     26  25  94 CALM      30.28R
CHARLEVOIX     FOG       30  30 100 E3        30.35S VSB 1/4
6HR MIN TEMP:  27; 6HR MAX TEMP:  32;

FRANKFORT      CLEAR     28  26  91 CALM      30.33R
GAYLORD        CLEAR     32  27  81 NE6       30.28R WCI  26
6HR MIN TEMP:  28; 6HR MAX TEMP:  33;

GRAYLING       CLEAR     23  23 100 CALM      30.29S
HARBOR SPRINGS CLEAR     26  26  99 CALM      30.32F
HOUGHTON LAKE  CLEAR     27  25  92 CALM      30.29R
6HR MIN TEMP:  26; 6HR MAX TEMP:  30;

MANISTEE       CLEAR     28  27  96 CALM      30.31R
OSCODA         CLEAR     29  27  92 NW3       30.29R
6HR MIN TEMP:  26; 6HR MAX TEMP:  31;

PELLSTON       CLOUDY    30  28  92 N3        30.34R
6HR MIN TEMP:  24; 6HR MAX TEMP:  30;

ROGERS CITY    CLEAR     33  31  90 N3        30.34R
TRAVERSE CITY  CLEAR     27  24  89 CALM      30.32R
6HR MIN TEMP:  27; 6HR MAX TEMP:  32;

$$
MIZ007>008-015-291300-
EASTERN UPPER MICHIGAN

CITY           SKY/WX    TMP DP  RH WIND       PRES   REMARKS
KINROSS        CLEAR     26  25  96 N3        30.34R
6HR MIN TEMP:  24; 6HR MAX TEMP:  29;

MACKINAC ISLAN CLEAR     28  28 100 NE7       30.33S WCI  20
6HR MIN TEMP:  27; 6HR MAX TEMP:  32;

NEWBERRY       CLEAR     27  26  96 N3        30.34R
6HR MIN TEMP:  26; 6HR MAX TEMP:  30;

S. S. MARIE    CLEAR     31  22  69 NE5       30.34R WCI  26
6HR MIN TEMP:  29; 6HR MAX TEMP:  32;

MUNISING         N/A     28  26  92 CALM      30.36R
6HR MIN TEMP:  27; 6HR MAX TEMP:  30;

$$
MIZ004>006-011>014-085-291300-
CENTRAL UPPER MICHIGAN

CITY           SKY/WX    TMP DP  RH WIND       PRES   REMARKS
MANISTIQUE     CLEAR     27  26  98 N6        30.34R WCI  20
6HR MIN TEMP:  26; 6HR MAX TEMP:  32;

ESCANABA       CLEAR     30  28  92 N5        30.37R WCI  25
6HR MIN TEMP:  25; 6HR MAX TEMP:  32;

MENOMINEE        N/A    N/A N/A N/A MISG        N/A
SAWYER-GWINN   CLEAR     28  27  93 NE10      30.33R WCI  19
$$
MIZ001>003-009>011-084-291300-
WESTERN UPPER MICHIGAN

CITY           SKY/WX    TMP DP  RH WIND       PRES   REMARKS
IRON MOUNTAIN  CLEAR     25  21  85 CALM      30.33R
6HR MIN TEMP:  24; 6HR MAX TEMP:  33;

HOUGHTON       PTCLDY    31  27  85 E9        30.36R WCI  23
6HR MIN TEMP:  31; 6HR MAX TEMP:  34;

COPPER HARBOR    N/A     28  23  81 S3        30.39R
6HR MIN TEMP:  28; 6HR MAX TEMP:  33;

IRONWOOD       CLOUDY    31  27  85 E8        30.31R WCI  23
6HR MIN TEMP:  30; 6HR MAX TEMP:  37;

$$

ABBREVIATIONS USED IN REMARKS
   TC - TEMPERATURE IN CELSIUS
  WCI - WIND CHILL INDEX
   HX - HEAT INDEX
  VSB - VISIBILITY





USA.gov is the U.S. government's official web portal to all federal, state and local government web resources and services.